Location: Newark
(34.9500°N, 139.9667°E)
Time: 09:45:03
(UTC+00:00)

Transit 4A - Pass Details

Date: 08 December 2019
Orbit: 872 x 973 km, 66.8° (Epoch: 25 January)

Event Time Altitude Azimuth Distance (km) Brightness Sun altitude
Rises 09:26:05 0° 253° (WSW) 3,609 12.4 -23.5°
Reaches altitude 10° 09:29:40 10° 273° (W) 2,648 11.3 -24.2°
Maximum altitude 09:33:29 17° 312° (NW) 2,179 10.2 -25.0°
Drops below altitude 10° 09:37:16 10° 351° (N) 2,610 10.2 -25.7°
Enters shadow 09:38:57 - 2° (N) 3,015 10.4 -26.1°
